RH
11 12 11 10 9 8 8 6 6 4 4 7 4 10 43 73 78 76 71 64 52 41 53 78 84 80 79 75 69 62 54 50 45 39 33 28 27 29 29 28 27 25 26 28 28 28 27 27 33 43 49 53 57 59 59 57 56 53 46 42 41 40 40 35 28 29 30 31 34 31 31 30 21 20 21 17 19 21 26 34 29 34 49 44 55 80 83
13 13 11 11 10 8 8 6 5 5 5 6 5 13 41 69 76 73 70 65 58 59 71 75 69 70 72 68 64 58 54 55 51 45 40 37 36 36 33 31 32 31 30 32 33 31 28 28 33 40 46 49 52 60 65 62 60 56 48 48 45 40 44 46 41 41 38 33 36 36 35 35 29 28 29 26 24 22 25 30 28 34 40 38 59 87 87
14 13 11 12 9 8 8 6 5 6 4 6 8 18 43 65 71 74 77 72 67 72 77 75 76 80 71 59 58 59 57 59 57 51 44 40 39 38 34 34 35 36 36 36 36 33 28 30 37 37 36 37 39 51 63 64 62 60 55 54 49 44 50 51 49 58 59 51 50 47 43 42 37 36 34 32 31 26 25 29 29 34 38 36 51 73 86
14 12 11 10 8 8 7 5 6 5 4 12 22 32 51 62 62 71 78 67 58 63 69 71 82 89 78 65 66 68 62 57 57 56 50 43 39 38 38 39 38 38 39 40 39 34 28 34 44 44 41 40 39 48 62 67 66 65 62 60 54 50 54 51 46 52 54 52 52 49 48 47 42 42 41 38 36 30 25 27 29 33 39 47 56 58 72
13 11 10 9 8 8 6 5 7 5 4 19 38 47 52 57 60 62 59 53 50 53 60 70 83 88 81 74 73 73 68 63 60 57 53 49 44 43 46 43 41 45 48 47 44 36 36 46 52 50 51 52 50 54 64 68 67 64 62 63 60 56 57 54 49 48 46 46 50 49 48 47 45 49 51 49 44 37 31 30 33 35 39 57 71 60 61
12 11 10 10 8 7 7 5 6 7 5 14 38 51 47 57 72 63 48 49 50 46 53 71 85 87 84 82 80 77 74 71 67 61 60 63 60 57 55 50 50 57 58 55 49 39 39 51 57 55 56 60 61 60 67 71 68 63 62 63 62 62 64 59 54 53 50 47 50 50 47 47 49 54 58 58 54 50 46 39 36 38 37 54 76 71 71
12 10 9 9 8 7 7 6 5 8 6 5 23 40 43 57 74 65 56 60 57 53 61 70 76 82 84 85 84 84 82 78 73 69 67 69 68 67 65 60 58 60 60 64 61 50 50 62 68 63 59 62 63 60 65 71 69 67 67 66 65 66 68 65 59 56 55 52 50 50 49 49 51 54 58 61 60 60 60 49 40 41 41 49 64 71 81
11 10 10 9 9 8 6 7 6 6 8 6 9 21 32 48 62 60 58 57 48 53 64 64 65 72 75 78 81 82 82 74 67 68 72 71 69 68 68 69 68 65 67 71 68 61 64 70 68 62 60 62 60 58 63 65 62 68 73 72 71 69 68 68 63 56 55 53 49 51 54 54 57 60 62 64 64 65 68 61 50 49 53 54 53 59 80
10 11 11 9 10 9 7 8 8 5 8 8 6 9 14 24 41 51 52 44 37 48 62 61 60 62 65 74 75 68 67 63 57 64 75 77 70 63 62 67 72 72 69 68 66 64 65 64 59 56 59 61 55 53 60 59 53 60 67 67 70 72 71 69 63 58 60 57 50 52 54 52 57 63 62 65 70 69 67 68 66 62 63 62 58 61 74
12 11 12 11 10 11 9 8 8 7 8 6 6 9 6 9 32 52 53 45 40 45 52 50 51 55 61 72 72 60 58 59 57 61 70 72 67 62 58 59 66 71 67 59 56 55 54 54 53 52 54 57 52 47 50 50 46 49 52 54 61 68 70 69 67 68 72 68 59 54 51 55 69 76 69 70 80 77 65 65 70 71 68 62 63 72 77
12 11 12 12 11 11 11 10 9 8 8 6 7 8 7 17 41 53 50 49 48 47 49 50 50 51 52 57 61 58 56 58 61 63 64 64 66 68 63 57 59 65 61 53 50 52 49 45 46 47 47 47 47 45 43 42 43 46 46 47 53 56 58 65 74 78 79 76 65 57 62 76 93 96 80 72 81 81 71 69 74 79 81 70 64 76 88
12 11 11 12 11 11 11 11 11 9 8 7 7 7 8 20 41 50 48 51 53 52 55 59 56 53 53 51 53 60 60 55 57 61 59 58 65 71 68 62 58 57 54 52 53 57 56 50 49 50 49 45 43 44 44 41 41 46 48 48 51 53 52 58 70 78 80 77 68 67 83 95 97 95 85 76 81 83 78 80 83 84 88 86 82 87 97
11 11 11 11 11 11 11 11 11 11 10 8 8 8 7 12 30 44 44 45 48 49 58 65 56 50 57 55 51 62 67 56 55 63 58 52 57 61 62 62 61 56 53 54 56 56 55 55 54 52 50 49 45 42 43 42 41 48 55 57 57 59 63 67 72 77 78 76 75 81 95 97 89 87 84 79 81 84 82 86 89 85 80 81 87 93 94
11 11 10 10 10 10 11 12 11 11 11 10 9 9 7 11 25 35 34 37 42 39 45 55 48 45 62 65 54 61 69 60 56 63 61 51 47 45 48 58 63 57 53 54 54 53 53 52 51 49 47 46 45 46 47 47 46 49 55 61 60 59 65 72 74 76 75 76 84 90 90 90 87 85 85 82 82 86 88 88 91 90 81 72 71 80 86
10 10 9 9 9 9 10 11 11 11 12 12 12 10 9 11 21 28 30 39 48 39 29 29 28 37 61 70 57 53 59 58 55 60 62 55 46 40 40 46 51 51 52 54 52 51 52 50 47 49 51 50 52 56 54 50 52 52 51 56 58 56 61 65 67 73 76 76 84 90 91 94 91 83 84 88 90 92 90 85 86 90 90 82 70 68 76
10 9 9 9 8 9 10 9 10 11 11 13 13 11 11 11 14 19 20 26 38 37 22 13 15 24 39 49 49 44 43 47 50 54 57 53 47 45 39 34 40 47 50 53 52 47 49 49 46 48 56 59 61 63 62 57 59 59 56 57 57 55 59 61 62 69 74 71 76 87 94 96 88 79 81 86 91 94 89 86 90 91 91 91 81 70 72
9 8 9 9 8 9 9 8 10 10 10 13 13 11 14 15 16 18 14 13 21 22 13 8 11 15 17 23 33 31 28 40 50 51 56 60 57 53 43 34 42 53 51 48 47 44 43 44 43 47 56 61 63 68 70 65 61 62 63 61 60 57 60 63 62 62 65 69 79 91 97 94 86 81 82 82 84 88 87 90 96 93 90 94 89 79 79
9 9 9 9 8 9 9 8 10 10 9 12 12 11 13 14 17 20 15 14 17 14 10 10 10 12 12 14 19 15 16 40 55 44 45 56 50 42 43 39 38 45 48 45 43 42 40 37 39 45 52 58 62 65 67 64 61 63 64 64 65 65 67 69 67 64 63 69 83 91 92 91 87 80 76 75 78 85 89 92 96 95 95 99 95 89 86
10 9 9 9 8 9 10 9 10 10 10 11 12 12 12 12 16 19 15 15 18 14 12 13 10 11 11 9 15 15 12 29 37 22 25 40 33 33 52 52 36 36 45 44 40 41 40 36 36 40 46 53 55 55 56 57 57 58 61 65 68 71 75 73 66 66 67 68 79 89 87 84 81 76 73 72 78 89 94 94 95 95 93 92 91 93 95
10 9 9 10 9 9 10 9 10 10 10 12 12 11 12 11 13 18 17 15 17 17 15 14 13 14 13 10 13 15 10 13 14 10 18 26 22 36 63 62 44 39 40 38 38 42 44 41 37 37 43 47 47 46 48 51 50 50 56 63 64 67 78 78 68 69 75 75 82 94 93 83 74 73 75 75 82 95 97 92 95 98 93 87 84 85 90
10 9 10 10 9 10 10 9 10 11 10 12 12 12 13 11 12 17 17 15 19 23 20 18 17 16 14 14 14 12 11 11 10 15 25 23 19 36 57 55 42 38 41 44 45 44 46 45 41 42 45 43 40 41 43 46 48 48 49 56 60 62 72 78 74 73 80 86 92 100 99 87 76 75 78 79 85 97 97 91 95 101 99 95 90 86 86
10 10 10 10 10 11 11 10 11 11 10 11 12 12 13 13 13 16 17 17 20 22 19 23 28 25 20 19 17 15 16 13 10 15 24 26 23 28 35 36 30 31 46 58 54 47 47 46 46 47 46 43 42 42 42 43 49 52 50 51 58 64 69 72 69 66 73 88 97 99 96 89 80 78 82 86 93 100 96 91 95 100 100 99 97 95 95
11 10 10 11 11 11 12 12 11 12 12 11 12 12 13 14 14 15 17 18 19 22 26 34 37 32 27 25 21 19 19 18 16 15 16 21 22 17 18 23 19 24 45 53 43 42 46 44 46 49 44 42 47 47 46 46 48 56 60 55 56 67 73 71 68 67 73 86 96 97 92 86 82 85 90 92 97 101 98 92 91 94 99 101 99 98 98
11 11 10 11 11 11 12 12 12 13 12 12 13 13 13 14 14 15 17 20 23 30 42 49 44 32 27 27 24 23 22 20 19 18 15 17 17 12 13 13 10 26 53 49 32 38 45 43 49 53 45 44 50 51 50 48 47 55 63 57 53 59 65 68 71 72 72 79 91 96 89 80 79 88 98 99 97 98 100 98 94 93 98 101 100 99 100
11 11 10 11 11 11 12 12 12 13 13 13 14 14 14 15 15 15 19 26 34 43 54 60 53 37 28 29 29 27 25 22 22 21 18 16 15 12 13 10 6 22 45 39 27 37 47 47 52 55 49 47 52 53 51 48 46 49 56 56 53 53 61 69 70 68 72 81 86 85 80 74 71 77 89 99 101 99 98 97 96 95 97 99 100 100 100
11 11 11 11 11 11 12 12 12 14 15 16 16 15 16 16 15 17 27 40 55 66 70 69 61 46 36 36 35 30 28 26 24 22 20 18 17 14 14 13 9 12 22 26 29 39 46 45 48 53 51 49 50 51 49 49 51 51 53 55 52 50 64 76 71 68 83 94 90 85 87 88 79 70 73 82 90 96 99 99 99 98 96 97 99 99 99
12 11 11 11 11 11 12 11 13 17 21 22 21 19 18 17 16 19 28 43 63 75 72 68 68 63 52 44 37 33 32 28 25 25 24 22 20 18 16 16 14 14 20 30 37 42 45 46 44 42 40 40 43 42 39 43 53 57 57 58 53 50 64 77 76 81 94 99 97 96 98 100 96 87 79 74 71 76 82 86 89 90 89 90 92 93 93
12 11 11 12 11 11 12 13 18 25 28 29 28 24 20 21 20 18 21 39 65 74 62 59 70 71 61 52 47 39 32 29 28 28 26 25 25 23 20 19 21 23 29 37 41 39 42 48 47 36 33 40 45 40 36 43 50 53 56 59 56 53 57 61 68 83 95 99 101 98 93 95 99 98 94 85 75 70 71 71 75 78 75 72 74 77 78
12 12 12 12 11 12 14 19 25 30 33 34 33 29 25 23 23 19 19 32 49 50 45 57 74 73 64 60 52 40 36 40 39 33 32 38 42 36 27 25 30 33 34 39 44 41 36 41 40 30 31 48 53 44 45 55 57 58 64 65 58 54 51 48 58 75 85 92 98 96 92 96 98 97 98 96 91 87 86 87 88 85 76 69 67 72 79
12 12 12 12 12 14 19 24 28 31 34 36 35 31 29 29 26 21 20 24 27 28 37 58 71 68 62 56 46 42 55 65 59 51 53 59 60 56 46 36 35 37 36 36 40 40 36 37 33 19 20 39 49 45 51 61 62 64 70 67 60 59 54 53 66 81 83 86 92 93 92 95 94 93 97 96 92 90 90 94 98 96 89 81 75 75 84
12 12 12 13 15 19 23 26 29 31 34 37 34 28 30 37 36 27 22 22 23 26 41 59 62 57 56 54 46 51 69 75 65 62 68 68 63 64 61 48 37 39 42 40 41 41 38 39 39 30 26 34 43 48 55 59 61 67 72 68 65 66 60 59 72 83 82 83 86 85 85 88 88 89 91 91 88 85 82 86 94 94 90 85 79 75 78
13 14 16 18 21 24 25 26 28 31 32 34 32 26 24 31 34 28 22 23 24 26 40 57 62 56 55 56 55 59 70 74 65 62 69 70 62 61 66 61 47 40 40 42 45 46 44 44 48 47 38 30 33 45 57 59 59 65 69 67 67 67 63 63 71 77 80 83 84 83 86 87 85 87 90 92 92 91 86 84 84 82 80 79 79 81 81
16 19 22 24 24 23 23 23 26 28 28 28 29 27 22 22 24 22 21 23 24 25 33 45 53 53 53 59 65 67 70 73 71 67 70 70 60 53 61 67 59 47 43 44 45 48 49 51 55 54 44 31 29 41 55 60 60 61 64 65 67 66 63 61 64 71 79 82 81 82 86 88 86 85 86 85 86 87 86 81 76 78 86 89 85 86 91
24 26 26 26 24 22 21 20 19 20 22 25 28 26 22 20 22 21 21 22 23 26 32 42 51 56 56 63 74 75 69 69 73 72 70 68 60 53 56 62 60 55 53 50 49 52 54 52 50 53 53 45 38 41 51 58 61 62 63 64 65 66 66 65 65 69 76 79 79 81 84 87 87 84 80 78 77 74 74 73 71 75 89 98 94 89 91
31 30 27 26 23 20 19 18 17 21 27 31 29 23 20 21 21 19 19 22 29 37 44 51 57 58 58 65 75 75 69 69 71 69 66 65 62 56 53 57 62 63 58 52 51 56 58 54 49 52 58 56 49 47 51 57 62 64 64 65 67 68 71 77 79 80 79 79 79 77 75 76 79 79 78 82 85 82 82 84 81 77 80 88 92 94 96
34 30 27 25 22 20 19 19 19 24 31 31 25 21 21 21 21 20 20 26 39 52 59 61 64 64 62 65 68 65 65 70 72 70 67 67 62 55 52 57 64 63 56 53 55 57 58 56 50 48 53 56 55 54 54 56 61 65 66 69 72 71 72 76 81 83 82 79 78 80 78 75 78 82 83 82 84 85 84 84 82 77 73 75 84 96 101
33 29 26 24 22 23 24 22 21 25 29 27 23 24 25 23 23 25 25 30 45 59 64 69 73 70 64 63 66 67 69 71 71 72 72 67 62 61 60 60 63 59 53 56 61 60 57 55 50 48 51 54 56 58 58 57 59 62 63 67 72 73 73 74 75 77 80 79 81 86 85 79 80 89 92 86 83 83 83 81 77 72 68 69 76 87 94
32 28 25 25 25 25 25 25 27 29 30 28 28 31 35 36 37 36 33 38 52 61 65 73 79 74 66 68 75 78 76 70 67 71 72 64 61 63 60 59 63 60 52 55 61 58 53 53 52 52 55 55 54 57 60 60 61 62 62 63 66 71 77 81 81 82 87 88 87 90 91 86 85 91 94 89 85 86 88 87 81 74 69 70 73 76 78
31 26 25 28 29 29 28 30 33 34 33 34 39 45 49 54 57 52 48 55 66 67 65 73 80 75 68 71 76 75 70 67 72 79 77 67 64 62 57 59 67 62 52 56 62 56 49 50 52 53 57 58 56 59 64 66 68 70 68 64 63 67 77 86 88 89 92 94 92 92 93 89 84 84 86 84 84 89 95 93 85 76 69 67 71 76 72
30 27 27 28 29 30 31 34 37 38 37 39 45 52 58 65 69 65 60 66 75 73 68 73 79 74 67 70 76 75 71 73 78 78 70 67 69 65 59 62 68 60 53 62 67 58 49 51 52 53 59 61 60 62 66 67 67 67 64 62 63 66 73 85 92 91 88 91 94 95 93 88 81 78 76 71 66 72 81 81 74 67 62 63 72 79 72
34 34 33 31 31 34 37 39 40 42 42 43 48 54 59 65 69 69 67 70 74 70 65 70 80 79 71 71 77 78 76 76 74 66 63 70 73 66 61 66 66 57 56 66 69 60 56 56 55 56 64 67 66 67 67 65 64 65 62 62 67 70 73 84 94 89 80 81 90 95 92 86 79 72 67 59 51 51 57 59 57 60 68 78 82 77 66
38 39 37 35 36 37 41 45 47 45 45 46 49 50 53 58 64 68 72 76 77 72 69 73 81 79 73 73 75 73 72 72 68 61 65 74 74 65 63 68 65 57 57 64 64 59 59 60 59 62 67 68 68 70 68 64 64 64 61 60 67 73 77 82 88 87 84 86 92 96 94 87 77 67 63 61 57 52 50 52 55 63 78 89 85 71 63
38 37 37 38 39 41 47 52 50 45 45 50 53 54 58 64 67 69 70 70 70 73 78 82 83 80 80 83 82 77 75 74 71 67 70 75 75 70 68 68 66 64 64 63 62 63 64 63 62 65 67 65 64 64 62 58 58 59 59 61 67 77 83 84 82 82 86 90 92 93 92 87 78 70 66 66 65 59 54 54 57 62 70 75 72 65 66
40 39 40 41 42 47 55 58 52 47 52 60 64 66 69 69 68 67 67 67 69 76 84 86 82 81 85 85 82 81 81 77 72 72 74 74 73 72 69 68 71 73 69 63 63 65 66 64 63 65 66 66 66 63 57 52 51 54 58 60 64 71 80 85 85 85 88 89 87 86 85 84 83 80 77 75 75 73 68 64 61 60 62 63 65 71 79
44 43 44 45 46 49 53 55 54 56 61 65 68 72 73 72 70 70 72 74 75 80 84 81 74 76 83 83 79 81 84 78 71 75 77 72 69 72 74 73 75 73 68 66 67 66 63 64 66 66 66 67 68 66 59 54 53 56 58 60 61 63 67 72 77 82 86 87 85 85 87 88 89 88 86 83 81 80 79 77 72 68 66 63 64 76 90
48 46 45 46 48 49 51 55 60 62 62 64 69 72 73 74 75 75 76 79 82 84 86 80 71 70 80 85 81 80 81 73 68 75 78 72 71 76 77 74 74 73 70 69 68 66 65 68 70 69 68 66 65 65 63 61 61 62 63 64 64 62 62 65 70 74 78 80 81 84 88 88 87 87 87 86 82 76 74 76 76 75 72 66 67 82 94
51 49 47 46 49 53 59 65 68 65 63 65 71 73 73 75 76 73 74 80 84 84 84 80 72 69 76 81 79 83 86 78 70 73 77 75 78 83 78 70 71 75 73 69 68 69 72 75 74 72 73 72 69 67 68 69 69 68 67 67 67 65 64 66 70 71 72 74 77 80 83 85 88 91 92 93 90 84 75 70 70 73 71 64 67 81 86
53 51 48 48 54 61 67 71 72 70 69 71 74 73 71 72 72 72 74 75 75 76 83 86 79 76 80 78 71 74 81 77 71 74 77 75 76 80 77 70 69 73 73 73 75 78 80 81 77 73 73 73 71 70 70 73 75 76 74 74 77 76 72 69 69 70 71 73 76 80 82 83 87 90 89 87 88 88 82 73 71 73 71 64 64 70 71
54 53 49 50 58 67 70 71 71 72 73 74 74 72 71 73 78 82 81 76 71 74 83 83 73 71 81 85 78 76 81 80 77 80 83 80 78 81 79 73 71 74 78 81 83 84 87 88 83 75 72 73 76 80 83 84 84 85 84 84 84 83 78 72 69 69 72 75 79 83 85 84 83 84 83 81 83 87 86 79 74 74 75 71 66 65 65
56 55 52 55 63 71 74 73 72 74 76 75 73 73 77 81 84 86 87 84 79 76 80 82 78 78 82 84 80 80 85 87 82 80 80 79 82 86 84 77 75 80 86 87 86 86 89 88 79 71 72 78 82 86 90 90 88 88 89 88 86 85 84 80 74 71 72 76 80 82 83 84 84 83 85 86 88 90 87 79 70 68 72 71 65 61 62
61 59 57 61 70 79 82 79 76 78 83 85 82 82 83 84 85 86 90 91 86 79 82 93 99 95 88 83 81 83 85 85 84 84 85 84 84 83 80 79 84 91 92 88 87 89 90 85 76 72 78 85 85 85 88 89 86 84 84 85 85 84 83 81 79 78 82 87 87 83 82 85 86 87 90 92 90 86 84 78 68 64 68 72 70 68 67
67 66 67 71 78 86 91 90 85 84 87 90 90 88 88 89 91 93 93 91 87 85 90 97 99 94 90 92 95 93 89 86 86 88 88 86 86 86 84 85 92 95 90 87 89 88 82 74 71 74 81 84 83 83 84 82 75 72 77 83 84 81 77 77 79 82 85 87 85 81 81 82 79 78 85 90 86 82 85 85 74 63 64 73 76 73 68
Wind_Speed
7 7 7 7 8 8 7 7 6 6 5 4 4 2 1 3 4 6 10 11 9 9 7 4 5 11 11 12 13 14 15 15 16 16 13 11 11 12 11 10 11 12 14 14 15 17 20 16 10 8 7 8 9 9 13 19 18 17 18 16 10 6 4 7 14 15 19 15 8 10 10 11 8 8 9 14 16 17 15 12 9 6 4 10 7 3 7
7 7 7 7 7 7 7 6 5 4 4 3 2 0 3 4 2 5 10 11 10 10 10 8 7 10 11 14 15 14 13 13 14 15 14 12 12 12 11 10 10 12 13 12 14 17 17 13 9 5 4 6 8 9 12 15 14 9 11 13 11 7 4 4 5 7 10 12 10 12 15 13 7 8 9 8 9 11 14 11 9 8 8 11 8 4 9
7 7 7 7 7 6 6 6 5 4 3 2 2 3 5 7 4 4 7 10 9 9 10 10 10 11 12 11 9 9 11 12 12 14 13 10 11 12 13 13 12 13 12 12 16 15 11 12 12 8 7 11 12 10 9 12 16 14 10 10 11 8 3 6 2 4 4 4 1 3 11 12 10 13 12 10 9 3 6 8 6 3 5 10 14 13 16
6 6 6 6 6 6 5 5 4 4 3 2 4 5 6 6 5 2 2 6 8 9 10 9 8 10 11 8 4 5 10 8 6 10 11 8 10 11 11 12 13 14 13 14 17 13 9 12 9 2 5 9 8 7 9 8 9 13 15 14 13 11 3 3 2 3 4 6 6 2 4 5 10 14 13 12 11 6 4 7 3 3 4 6 11 19 23
5 5 5 5 5 5 4 4 3 3 2 3 6 8 6 5 5 1 4 6 7 10 11 9 8 8 7 5 4 5 7 5 2 6 8 6 8 8 7 8 8 11 12 12 15 13 8 13 10 3 4 5 4 1 9 7 4 5 8 11 13 13 10 2 2 4 4 5 6 5 1 7 10 12 15 14 12 7 3 8 6 3 1 6 13 21 23
4 5 5 5 5 4 4 4 3 3 1 3 5 6 4 5 6 4 5 5 7 13 13 11 10 8 4 4 6 7 7 6 4 3 3 2 4 6 6 7 4 8 11 9 11 13 11 10 9 4 2 1 2 1 5 6 5 7 7 4 5 9 12 11 7 5 9 6 8 8 5 9 9 11 15 15 13 10 4 6 11 8 4 9 21 23 21
4 5 5 5 5 4 4 4 4 3 2 1 4 4 4 7 5 3 3 2 8 14 13 12 12 8 4 4 6 8 7 5 7 8 5 2 4 10 10 4 3 3 6 5 6 9 10 7 6 4 1 2 1 0 4 5 9 12 8 3 3 7 8 8 10 11 9 5 3 4 5 5 1 4 10 13 13 12 10 5 9 10 9 16 22 21 20
4 5 6 6 6 5 5 5 4 4 3 3 2 1 4 9 8 3 6 7 7 8 8 12 13 9 7 5 3 6 6 2 3 7 8 3 2 5 10 10 5 1 2 4 3 3 4 4 2 4 2 4 2 2 1 2 6 8 9 6 8 10 7 5 9 14 14 10 7 5 4 8 9 4 3 7 9 7 8 10 9 13 20 23 21 20 20
5 6 7 7 7 7 6 5 4 4 3 3 3 1 2 6 7 5 6 7 9 6 3 9 11 9 11 11 7 10 12 9 4 0 2 1 2 1 3 9 6 2 1 4 5 5 5 8 6 2 2 5 4 1 2 5 6 4 4 5 8 9 7 5 6 8 8 8 9 9 8 10 7 4 3 1 4 4 1 7 9 14 23 24 21 22 23
6 7 8 8 9 8 8 7 6 4 3 3 3 2 3 5 7 6 6 8 8 5 3 6 8 8 11 11 10 13 16 15 10 4 5 9 8 5 5 5 3 2 2 5 6 7 9 9 8 7 7 6 6 5 2 3 7 7 5 6 7 7 6 4 1 3 2 1 4 7 10 8 1 2 2 2 3 3 7 5 7 13 20 23 22 24 25
7 8 9 9 10 10 9 9 7 7 6 4 4 3 4 8 10 9 9 11 8 4 6 8 9 10 10 9 9 13 15 16 15 12 7 9 11 8 9 8 6 6 6 8 8 5 6 7 6 5 5 6 8 8 4 2 6 7 5 5 6 6 7 4 2 5 4 3 3 6 7 2 4 6 1 5 6 5 5 6 8 13 19 22 23 26 27
7 8 8 9 10 10 10 10 9 9 7 5 5 4 4 8 10 9 9 10 7 4 5 6 6 8 9 9 9 12 12 13 14 15 15 12 7 7 8 7 6 6 6 7 5 2 0 2 2 1 2 4 5 6 3 0 2 3 6 4 3 3 3 4 3 2 3 2 2 3 4 2 5 10 9 11 12 11 10 10 10 13 16 19 25 32 33
7 7 7 8 9 9 10 10 10 10 9 8 8 5 5 5 7 8 6 8 6 4 2 3 1 4 9 9 9 10 10 12 14 13 15 16 12 7 4 4 4 4 4 2 3 5 6 4 2 2 3 4 4 4 4 2 1 3 6 7 4 2 2 4 5 4 3 1 3 2 3 4 6 9 13 18 19 18 16 14 11 8 8 12 20 28 30
6 6 7 8 8 9 9 10 10 10 10 11 8 5 6 7 6 6 3 3 4 4 5 3 3 4 9 10 8 6 5 8 11 11 13 15 15 17 14 5 2 3 1 1 4 8 9 7 4 4 2 3 4 3 5 5 2 2 2 5 7 5 3 3 4 3 3 5 6 5 4 4 4 6 11 16 18 16 14 14 13 8 5 8 13 19 22
6 6 7 8 8 8 9 9 9 10 11 12 9 6 8 8 5 2 3 1 2 3 5 3 2 2 5 7 7 2 1 2 5 7 11 14 13 16 17 7 2 4 1 1 4 8 8 7 6 6 5 2 1 0 2 3 2 3 4 2 3 3 2 0 2 3 4 6 6 5 3 2 2 4 6 9 14 16 13 14 13 10 11 16 17 17 20
6 6 7 7 8 8 9 9 9 10 11 12 10 8 9 9 5 1 2 1 1 3 3 3 1 3 4 7 6 3 1 1 3 5 7 10 7 7 11 7 7 8 5 2 5 7 6 5 6 5 5 5 4 2 3 3 1 2 4 4 4 5 3 1 1 3 3 4 4 3 2 2 2 3 2 5 11 15 13 11 10 11 16 21 21 19 20
6 6 7 7 7 8 8 9 9 10 11 12 10 9 10 10 7 4 1 4 4 3 4 6 4 5 7 7 5 4 1 2 3 3 4 6 5 6 9 5 6 5 5 6 5 5 4 2 4 5 5 6 5 3 4 6 4 2 1 2 0 3 5 4 3 1 2 3 4 4 3 3 2 2 3 4 7 10 9 7 7 12 17 20 20 19 20
6 6 6 6 7 7 8 9 9 9 10 11 10 9 9 10 9 7 5 7 7 6 7 8 6 6 7 6 5 6 3 4 4 1 4 7 8 7 7 5 3 2 4 8 8 7 6 5 6 7 6 6 5 5 6 6 7 9 6 5 7 7 7 7 7 6 5 5 6 5 4 3 2 1 3 5 7 7 6 5 8 13 16 17 16 16 19
6 5 5 5 6 7 7 8 8 8 9 10 9 8 8 8 9 9 6 6 8 9 9 8 8 8 8 8 7 7 5 1 3 6 7 6 5 4 2 3 6 6 6 7 10 12 14 12 12 10 8 8 7 6 8 8 8 10 8 6 9 9 8 7 6 7 7 6 8 7 5 2 2 3 5 8 9 9 8 10 13 14 15 16 15 17 21
5 5 4 4 5 6 6 7 7 8 9 10 9 7 6 6 9 9 7 6 9 10 9 9 10 10 10 9 8 7 7 4 4 7 7 3 3 0 3 1 5 6 6 6 10 13 15 14 14 12 10 10 7 7 9 10 9 9 7 5 8 9 6 6 6 7 7 6 7 5 3 2 3 5 6 9 11 13 13 16 17 14 14 14 14 16 20
5 4 4 4 4 5 5 6 6 7 7 8 8 7 6 6 7 7 6 6 8 8 7 10 12 11 11 11 10 9 9 8 6 7 7 5 4 1 3 2 3 5 7 7 9 12 13 12 13 15 12 10 10 9 8 8 10 9 6 4 7 7 4 4 6 6 4 6 7 4 2 2 3 5 7 10 15 17 16 18 19 18 16 16 16 16 16
4 3 3 3 3 4 4 5 5 6 6 7 7 7 8 8 7 6 4 3 5 6 7 10 13 13 12 11 11 10 10 10 9 7 6 6 6 4 4 3 2 5 8 7 8 10 11 11 12 16 13 9 11 11 9 11 13 10 7 8 10 8 4 3 5 5 4 7 9 6 4 4 4 6 11 14 17 17 16 17 19 19 19 18 18 18 17
4 3 2 2 2 3 3 4 5 5 5 6 6 7 7 7 7 5 3 2 0 5 9 11 13 12 10 11 12 11 11 10 9 7 7 7 7 6 5 3 2 3 5 6 7 9 11 11 11 12 10 8 11 11 11 14 16 13 12 14 12 9 6 5 4 7 7 9 8 4 3 4 5 9 14 18 18 17 16 16 16 17 17 17 18 19 19
4 3 1 0 1 2 3 4 5 5 6 6 6 6 6 7 6 6 6 4 3 2 7 9 12 11 8 8 11 11 10 10 9 8 8 7 7 6 4 3 3 3 6 6 7 8 11 10 9 7 6 6 9 12 12 14 14 12 13 14 12 9 5 4 5 6 4 5 5 3 2 4 7 11 15 18 19 18 16 16 17 16 15 14 15 16 18
4 3 2 1 2 3 4 5 6 6 6 6 5 5 5 6 5 6 7 6 3 4 5 6 10 10 8 8 10 10 10 10 10 9 9 7 7 7 5 3 4 4 6 4 5 7 9 7 6 6 6 5 6 9 11 12 11 7 8 11 10 8 5 4 5 3 2 5 3 2 1 2 5 10 13 15 16 17 17 17 17 16 14 13 12 13 14
4 4 3 2 3 4 5 7 7 7 7 6 6 4 4 5 5 7 7 8 9 8 5 5 9 9 9 9 9 9 10 10 9 8 9 9 8 8 6 3 4 6 7 6 7 8 7 3 2 3 4 4 4 5 8 10 7 3 5 8 5 4 5 5 3 1 6 8 4 1 3 4 3 3 4 8 12 15 17 18 18 18 17 15 14 13 14
5 4 4 4 4 6 7 8 8 8 7 7 6 5 4 3 4 5 6 6 8 7 4 4 7 7 7 9 10 10 9 9 8 8 8 9 8 8 8 7 6 9 10 9 8 6 4 2 1 1 1 2 4 6 8 8 4 3 6 6 2 1 4 4 2 4 9 9 7 7 7 6 4 3 3 3 5 9 13 15 16 16 15 15 14 14 14
5 5 4 5 6 8 9 9 8 8 8 7 6 5 4 4 2 3 4 5 6 6 3 4 5 4 6 9 13 13 10 8 8 7 7 8 9 9 8 9 8 9 9 9 6 4 2 2 1 2 4 6 7 8 9 5 2 2 4 3 2 1 1 1 2 5 8 8 7 6 4 5 5 2 1 2 2 2 5 7 7 7 8 9 8 8 8
5 5 5 6 8 9 9 9 8 8 8 6 6 5 4 3 2 1 4 6 7 5 2 2 2 3 7 11 13 12 10 10 10 9 6 8 11 10 7 8 8 8 8 9 7 5 4 4 3 3 5 9 8 8 9 6 4 5 6 4 4 2 1 3 4 4 6 7 7 5 4 6 7 6 5 6 5 2 4 6 6 5 7 7 4 3 4
6 6 7 8 8 9 9 9 8 8 7 5 5 5 3 2 3 1 3 4 5 5 4 4 3 2 7 10 10 9 8 8 9 9 10 11 12 10 8 7 7 5 4 6 7 5 6 8 6 5 7 8 7 10 11 8 7 8 6 4 4 4 4 3 2 4 4 5 6 5 3 6 6 6 7 8 9 7 9 10 9 7 7 7 6 6 7
6 7 7 8 8 8 7 7 6 5 5 4 4 3 2 4 4 1 1 2 4 4 6 5 3 5 7 10 10 7 5 4 5 5 11 13 12 8 8 9 9 7 5 5 6 6 8 9 8 7 7 8 7 10 11 7 7 7 4 3 3 3 3 4 4 1 2 3 5 4 4 4 4 4 7 9 9 10 12 12 12 11 10 11 11 11 11
6 7 7 7 7 6 5 5 4 4 3 3 4 3 2 3 3 1 1 2 2 3 6 6 5 2 4 10 11 7 6 6 5 4 8 11 9 7 7 8 7 7 8 7 6 7 9 9 9 9 6 6 7 8 10 6 5 5 4 5 2 1 2 4 7 5 2 4 6 4 5 7 7 7 9 9 8 9 9 11 13 12 9 9 11 11 12
6 6 5 5 5 4 3 3 3 3 2 2 3 3 3 3 2 2 2 2 3 3 4 4 6 5 1 8 10 8 8 10 7 5 8 10 8 5 7 6 5 6 9 10 8 8 9 8 7 7 7 4 4 6 8 7 5 4 5 6 6 5 4 3 8 9 7 7 9 9 8 8 9 10 12 11 11 11 10 11 13 11 7 6 6 8 10
5 5 4 4 3 2 2 2 1 1 1 1 2 2 3 3 2 2 2 2 4 7 5 3 6 5 1 5 4 5 7 8 5 5 8 9 6 5 6 6 5 6 8 9 8 7 6 6 6 5 6 8 7 7 8 7 5 2 3 8 9 8 8 5 2 7 8 7 9 11 11 10 8 8 9 10 11 13 12 11 10 9 9 8 8 9 11
4 4 3 3 3 2 1 1 0 1 1 1 2 2 3 2 2 2 3 5 8 12 12 9 7 5 2 2 2 4 7 7 5 5 5 6 7 6 5 5 5 5 7 7 7 4 1 2 5 4 3 6 7 5 5 2 1 2 1 4 7 8 8 8 3 3 6 8 9 9 10 9 7 5 4 5 7 9 8 7 8 9 10 11 11 11 13
4 4 4 3 3 2 1 1 1 2 2 1 2 2 2 3 3 2 4 8 10 11 11 9 6 4 3 2 3 4 5 6 6 6 5 6 8 7 5 5 4 6 7 6 5 2 2 3 4 3 1 3 4 1 3 5 5 4 3 3 3 5 5 4 5 7 8 9 10 9 8 6 5 5 4 6 7 7 8 10 12 14 13 12 13 13 14
4 4 4 4 3 3 3 2 2 3 2 2 2 3 3 4 5 5 5 9 10 9 9 8 6 3 1 2 3 3 3 4 4 5 5 5 6 5 4 4 5 6 5 4 1 1 4 6 6 4 2 2 2 5 8 9 10 9 8 7 7 7 7 7 9 12 12 12 11 10 8 7 5 5 6 8 9 10 12 14 15 15 14 12 11 15 16
5 5 5 4 4 4 5 4 3 4 3 3 3 4 5 6 8 7 8 10 9 9 9 6 4 3 4 3 2 3 4 3 2 4 6 4 2 2 3 5 6 4 3 2 3 3 4 7 7 5 3 1 6 8 8 9 10 9 8 8 8 7 7 8 9 10 11 11 10 9 7 5 5 5 7 9 9 9 11 14 16 17 16 15 12 13 15
7 7 6 5 3 4 5 4 4 4 3 4 5 5 7 9 9 7 9 11 9 6 5 3 0 2 4 3 3 4 5 2 1 3 5 4 3 3 4 5 7 6 4 3 5 4 2 3 4 3 1 3 5 6 5 6 8 9 9 11 11 10 11 11 10 10 11 11 11 10 8 7 7 8 10 12 12 11 12 15 17 17 16 15 14 13 13
7 6 5 5 5 4 4 4 4 3 3 4 5 6 9 10 7 5 6 8 5 1 1 2 2 3 4 2 3 4 5 2 1 3 3 3 5 4 2 3 6 6 4 4 5 4 3 2 3 3 2 4 6 8 8 9 11 13 14 16 15 11 11 11 11 11 12 12 10 9 9 10 12 14 14 14 13 12 14 18 20 18 15 13 12 11 11
5 5 5 5 6 5 4 4 3 2 3 5 6 7 8 9 7 6 6 6 4 2 3 1 0 1 1 0 2 5 5 3 3 3 1 3 6 6 2 2 4 4 3 4 5 4 3 3 3 2 1 3 6 8 11 13 14 16 17 18 16 11 9 10 11 13 13 11 9 9 10 12 14 14 13 11 9 8 10 14 16 15 13 11 11 11 10
5 4 5 6 6 5 5 5 5 5 6 7 7 7 8 8 8 6 3 3 6 4 1 0 2 1 2 2 5 7 7 4 3 1 0 3 6 5 1 1 2 2 1 3 4 3 3 2 2 2 3 6 9 11 14 16 17 19 19 17 14 11 10 10 12 13 13 10 9 10 12 14 15 13 9 8 8 9 8 7 8 9 9 10 13 13 10
6 6 6 6 5 4 5 6 6 7 7 8 8 9 8 7 7 4 1 1 6 5 1 0 1 2 3 4 6 7 7 3 1 1 1 3 5 4 2 1 2 2 3 4 3 3 3 4 4 5 7 10 12 14 16 18 19 19 17 14 11 11 12 13 14 13 11 10 11 12 14 15 15 12 9 8 9 10 9 7 7 7 9 11 12 11 9
7 6 5 5 5 6 7 7 7 7 7 9 10 8 6 5 5 4 3 4 5 4 3 2 1 2 4 5 6 6 5 3 2 2 2 4 3 1 2 3 3 3 5 5 4 3 5 4 3 5 7 11 13 15 17 19 18 14 12 11 10 9 10 10 10 10 9 10 12 13 14 13 13 11 10 9 9 9 9 10 10 8 8 9 8 6 6
7 6 6 6 7 7 7 8 10 10 10 10 9 6 3 5 5 5 5 4 1 3 4 4 4 4 4 5 4 2 2 3 3 3 4 4 2 1 1 3 4 4 4 4 3 4 4 3 3 5 8 11 13 15 18 20 18 13 10 10 11 11 11 11 10 9 8 10 12 13 13 13 12 12 11 10 9 8 8 9 10 10 10 9 6 5 7
8 7 7 8 8 8 8 9 11 10 8 6 4 3 3 5 5 6 5 3 1 3 6 6 6 4 3 3 2 1 2 2 3 3 4 4 3 2 4 5 4 3 3 3 2 2 3 4 5 6 7 11 14 15 17 19 18 14 11 10 12 13 13 13 13 12 11 11 13 14 14 15 14 14 12 12 12 10 9 8 9 9 11 10 6 4 6
8 8 7 8 9 9 9 10 11 8 4 3 4 5 5 5 6 6 6 7 6 7 8 8 5 3 3 3 2 1 2 4 3 2 3 3 2 4 5 4 3 2 3 4 4 4 5 7 7 6 7 11 14 16 17 18 16 13 11 11 13 14 14 14 14 13 12 12 13 14 14 15 14 13 13 14 14 13 10 8 7 8 10 10 7 6 9
9 8 8 10 11 10 8 7 7 5 4 5 6 6 6 6 7 8 6 7 8 8 7 5 2 1 2 2 2 2 3 4 4 3 3 3 3 4 4 4 4 3 3 4 5 6 7 10 11 11 12 14 16 18 19 18 16 15 14 14 14 14 14 14 14 14 13 14 14 14 14 15 15 14 14 14 13 11 9 8 7 7 8 9 9 10 12
9 8 9 11 13 11 5 2 3 5 6 6 5 4 5 5 5 6 5 5 6 6 3 2 1 1 2 2 2 3 3 4 3 3 3 3 2 3 4 5 5 5 5 6 7 8 9 12 14 15 16 17 16 16 16 16 17 17 17 15 13 13 14 15 14 14 14 14 14 13 14 16 16 15 14 12 11 9 9 9 8 7 7 8 9 10 12
9 8 9 11 11 9 5 4 4 4 6 7 4 2 3 5 7 7 7 8 9 7 3 1 2 2 2 3 4 3 4 5 5 5 4 4 3 4 5 6 6 7 8 11 12 11 11 14 16 17 17 17 16 14 15 16 16 16 16 15 14 13 14 16 15 14 13 13 13 13 14 15 16 16 14 12 9 9 10 11 11 9 8 9 9 9 10
8 8 9 9 9 8 7 7 7 5 5 6 6 6 6 7 9 9 9 10 11 8 4 3 4 3 4 5 6 5 5 5 6 6 6 5 5 5 7 8 9 10 12 14 15 14 15 17 18 18 17 17 16 16 18 18 17 16 17 18 16 13 13 14 14 13 13 12 12 13 13 14 15 15 15 12 8 6 8 10 11 9 8 8 9 8 9
9 8 9 9 9 8 6 7 9 9 5 3 4 7 8 9 10 11 10 10 10 8 5 6 6 5 5 6 7 6 6 5 5 5 6 6 6 7 8 10 12 14 16 15 15 16 19 21 22 20 17 16 16 17 18 18 17 16 17 19 18 15 14 14 13 13 13 13 13 13 13 14 14 14 13 11 8 6 6 9 9 8 7 8 9 9 9
Wind_Direction
324 321 321 318 315 317 320 325 330 327 324 331 327 293 324 15 342 348 353 341 329 332 346 353 297 292 294 289 284 276 278 289 290 294 305 305 304 302 291 297 310 297 289 296 297 296 299 298 298 310 318 299 274 257 238 226 237 256 259 265 251 225 279 225 211 225 226 238 256 214 245 293 260 249 264 249 243 226 225 242 219 186 138 141 121 95 162
325 324 325 320 321 325 324 327 334 332 329 336 348 51 84 68 11 333 349 350 347 348 344 330 301 285 276 271 267 261 271 292 292 286 292 301 306 308 295 286 306 306 286 287 305 304 296 288 288 309 330 304 279 257 238 218 217 243 258 260 242 216 323 321 199 200 225 241 249 233 255 295 335 359 338 302 272 227 209 207 194 207 218 180 149 128 159
328 328 330 326 328 331 328 332 334 340 349 0 56 98 106 90 67 336 351 1 354 343 329 326 331 320 302 292 283 268 270 281 286 279 275 285 297 303 299 283 291 305 292 294 309 301 293 301 293 277 283 298 296 273 235 203 204 221 245 246 220 205 333 343 219 172 182 194 137 240 255 284 344 358 342 338 346 317 182 154 137 173 191 163 157 155 154
333 334 337 334 336 335 334 338 337 348 11 62 89 101 116 92 75 99 8 350 338 334 327 324 330 318 308 312 323 298 286 280 284 278 265 267 273 277 297 291 286 301 302 309 311 289 283 320 321 296 302 308 303 251 203 176 187 215 236 243 227 211 213 29 88 176 185 151 105 72 260 304 1 5 357 351 355 360 184 177 146 118 107 109 149 161 162
340 344 348 345 344 342 343 351 353 0 29 102 107 117 121 67 44 233 248 291 322 341 338 336 341 331 322 330 341 333 319 313 285 261 257 271 272 266 289 283 286 317 313 305 304 287 289 327 336 16 356 341 2 264 196 182 140 160 207 230 230 223 219 224 78 110 145 185 204 234 163 66 29 22 32 24 11 15 178 192 186 182 115 100 145 165 169
354 354 0 0 356 355 358 6 16 14 30 132 141 157 146 73 40 330 283 275 328 351 353 356 357 355 22 33 18 27 20 10 14 332 287 313 338 351 326 259 251 333 318 301 301 285 283 320 337 355 17 84 27 303 198 208 211 173 153 148 202 224 230 247 249 140 120 149 204 218 160 92 47 42 50 32 18 28 52 178 186 203 215 143 152 162 163
11 12 18 19 15 15 16 18 25 21 0 191 190 202 170 138 132 0 19 52 356 354 353 353 355 358 30 47 35 40 32 31 49 36 23 90 55 26 11 322 260 328 330 335 326 294 287 324 14 32 97 133 35 302 191 235 244 223 208 174 223 235 227 238 236 203 177 171 225 244 198 181 263 34 42 18 12 33 51 100 174 186 164 151 157 159 158
34 37 37 33 31 32 29 26 26 21 2 330 297 226 165 163 164 102 84 85 23 352 331 343 353 1 8 10 30 27 1 311 107 51 29 50 96 50 35 13 341 212 69 13 333 280 277 285 357 41 118 156 96 39 64 307 285 242 217 216 243 242 223 213 216 209 207 212 233 252 193 191 220 226 49 6 350 12 63 90 124 147 148 154 162 162 158
54 52 48 44 42 40 38 38 32 23 12 351 347 40 157 173 164 124 99 78 37 18 355 359 0 2 7 8 8 10 359 329 283 242 47 348 258 230 27 11 356 198 148 330 282 232 229 235 232 237 199 179 169 134 349 341 331 298 248 260 258 234 223 236 214 202 207 205 214 223 197 185 194 181 165 318 328 309 148 124 136 150 155 161 165 162 160
65 59 55 52 48 47 45 43 41 35 28 22 30 66 114 145 149 131 96 70 43 19 336 352 3 11 13 9 357 358 4 357 338 303 232 247 262 269 274 307 326 228 254 315 294 259 247 243 241 241 241 229 204 190 208 292 300 308 324 313 283 245 242 269 81 81 7 245 193 195 193 198 179 58 233 209 106 213 230 195 174 177 174 174 171 165 164
71 63 60 57 51 51 49 42 44 41 31 33 40 54 114 135 145 139 103 82 69 32 352 358 24 35 23 8 352 345 356 7 5 5 347 287 270 267 273 278 272 254 275 316 323 295 248 237 242 244 244 251 233 208 193 267 279 298 327 320 300 288 274 272 60 51 10 21 101 127 142 151 46 56 188 199 143 157 199 168 162 184 187 182 175 166 159
74 65 63 61 53 52 51 44 46 44 36 44 47 47 106 135 153 156 117 97 104 94 51 42 53 46 20 3 359 351 351 6 10 12 16 6 324 271 267 271 275 277 294 323 344 14 65 195 200 267 288 286 256 212 180 343 296 341 5 357 328 320 283 235 196 227 293 352 68 94 94 105 99 97 128 165 146 124 127 133 144 172 183 176 165 160 157
77 69 65 63 56 54 52 47 47 47 46 48 48 55 81 107 152 173 149 119 138 183 137 89 67 49 28 6 6 12 3 4 11 11 14 20 25 17 338 276 281 320 336 357 62 61 38 39 59 337 291 256 247 209 179 172 104 55 39 31 23 35 116 160 181 215 242 98 94 110 109 121 132 126 139 152 141 121 115 113 111 135 177 178 162 159 162
81 73 66 63 60 56 53 51 49 49 52 48 42 55 68 76 129 174 205 103 119 208 229 269 311 42 37 0 347 18 15 2 11 12 8 11 19 17 9 344 283 352 1 168 78 59 36 23 24 5 332 201 206 199 184 181 148 135 122 55 35 36 89 157 191 202 180 128 116 126 128 117 136 144 144 144 132 120 120 120 112 104 126 162 166 166 172
86 77 71 65 63 60 56 57 55 52 56 51 38 48 64 69 100 159 273 311 99 224 246 281 296 85 37 335 313 334 90 36 26 26 15 9 13 11 2 357 92 61 37 169 68 56 40 21 22 21 21 50 81 149 216 204 165 183 208 172 73 70 60 310 218 161 132 127 120 119 133 155 154 144 156 151 127 121 139 148 140 135 141 152 164 173 177
92 82 75 67 65 65 59 57 59 57 58 53 41 46 62 60 52 12 258 193 34 307 317 349 272 233 286 299 301 311 253 112 73 73 39 19 23 4 341 355 80 61 28 68 60 43 39 18 11 29 50 50 46 26 343 341 70 177 231 232 208 187 151 90 206 182 155 139 123 114 136 178 164 114 145 169 137 131 147 152 140 150 161 166 172 178 180
101 88 80 72 65 64 62 58 57 56 57 53 42 41 57 59 41 6 12 54 33 358 8 8 332 297 306 304 301 310 325 106 105 91 40 356 331 307 310 344 79 58 35 73 67 30 35 16 10 50 72 46 34 44 25 11 17 25 296 280 241 155 139 89 53 71 152 142 123 104 117 161 181 115 111 150 148 145 152 148 146 163 172 179 184 184 183
110 95 84 78 68 62 62 58 54 54 57 54 43 37 51 59 44 17 19 46 43 37 39 26 8 1 355 348 342 339 11 127 160 317 326 298 303 326 331 350 49 87 83 80 73 57 57 61 54 60 63 52 60 69 51 46 54 50 46 40 49 71 85 58 51 70 85 123 134 108 102 146 180 161 156 165 158 145 140 147 161 172 177 183 193 198 196
117 103 87 79 71 64 61 57 54 53 55 53 45 34 40 57 49 23 14 52 58 47 44 40 31 29 23 14 10 2 6 154 241 325 332 285 295 1 27 7 34 70 92 89 83 65 48 49 56 55 56 71 84 68 55 73 83 67 60 56 51 58 59 40 52 75 77 116 136 109 86 114 135 150 178 177 157 133 133 152 160 171 179 179 184 197 201
124 110 92 77 66 60 58 55 51 48 50 51 44 28 24 48 56 32 6 40 63 53 48 51 45 41 37 27 23 22 19 9 334 354 11 349 304 322 153 64 37 80 103 108 98 69 47 50 56 47 50 68 74 65 68 83 84 67 63 67 62 66 61 37 52 76 81 101 114 97 72 110 139 153 170 173 156 139 143 158 163 170 180 177 178 191 199
137 123 102 80 63 54 50 49 46 44 46 46 41 32 23 29 49 41 10 23 56 52 45 51 46 41 45 40 33 32 31 28 27 29 32 11 343 34 120 45 35 95 91 83 88 72 59 64 56 40 43 66 71 64 69 80 70 60 64 74 65 68 75 62 71 82 87 91 93 102 144 141 148 157 152 152 152 151 160 170 169 171 179 181 180 185 195
151 141 115 83 61 50 42 38 38 35 36 37 34 34 31 23 31 39 13 11 59 55 39 38 31 24 31 36 35 38 40 36 37 37 23 4 5 37 68 37 52 107 92 80 86 81 75 76 59 39 37 63 69 55 55 73 71 60 56 61 62 59 44 51 79 81 93 113 121 138 146 129 149 164 153 150 154 162 177 187 182 178 181 187 188 187 190
169 161 133 83 50 41 31 25 24 19 18 23 21 24 29 23 19 29 10 301 64 62 44 28 12 5 14 25 27 33 38 36 36 32 21 20 32 50 69 63 57 124 118 90 82 90 88 80 61 39 35 60 66 48 52 74 76 69 63 65 77 85 44 12 72 95 99 118 136 169 164 144 170 174 163 161 165 173 186 198 198 188 183 191 201 200 198
185 187 177 60 13 12 5 359 359 357 357 2 5 12 20 12 8 28 26 341 304 82 69 34 4 352 359 17 22 26 29 29 33 34 30 29 33 41 64 81 70 118 133 94 70 96 99 77 54 48 56 71 65 54 59 72 75 80 82 78 85 98 70 32 82 98 106 134 154 196 181 149 176 183 176 175 176 178 187 199 205 200 189 192 204 208 210
198 211 236 298 321 331 335 333 332 334 336 340 346 356 5 4 8 30 35 24 30 83 78 19 353 355 9 17 16 19 22 22 23 28 34 39 39 39 55 86 91 122 150 127 83 101 100 66 46 75 92 91 81 72 73 73 63 62 91 91 81 83 91 88 78 76 135 155 166 270 346 127 177 184 184 189 192 193 196 200 206 211 210 207 211 216 220
213 226 250 279 298 308 315 316 317 318 318 322 328 338 350 358 14 35 56 80 95 97 79 11 359 7 17 17 13 14 17 17 15 20 29 35 38 42 43 58 105 124 135 133 121 120 113 82 70 117 108 96 98 89 80 81 73 55 93 99 82 75 97 89 41 87 144 148 161 174 130 146 201 215 190 198 206 210 211 210 211 218 225 229 230 230 229
227 239 255 276 292 301 304 305 308 308 306 309 314 319 328 341 19 54 77 101 111 119 116 47 21 1 351 4 12 12 11 13 12 18 29 32 34 42 43 48 95 122 123 122 122 118 112 112 123 128 105 113 123 103 83 83 93 94 100 101 77 69 103 88 66 139 142 146 156 157 153 171 215 277 305 259 224 215 216 219 221 224 228 231 231 228 229
240 253 268 283 290 296 300 301 301 297 295 300 301 301 315 323 346 64 90 119 129 134 127 56 32 333 325 359 4 356 358 11 13 14 35 46 41 45 56 66 92 118 123 115 95 44 36 116 100 34 80 118 125 103 85 91 117 66 73 75 26 49 135 278 244 165 154 158 171 175 187 206 208 198 1 317 294 255 242 244 244 245 249 248 239 232 233
252 264 277 287 292 296 299 297 294 289 288 293 293 292 301 295 277 79 98 127 143 151 156 85 71 324 327 345 349 348 2 17 17 21 44 47 32 27 44 75 96 116 119 102 79 35 30 64 50 41 105 125 120 80 70 90 101 63 39 13 357 2 348 310 277 219 175 177 196 202 195 199 196 175 155 155 154 175 255 267 268 271 277 279 269 246 254
260 271 281 289 294 298 298 294 290 286 283 282 287 293 293 233 209 152 96 130 153 170 181 154 120 5 343 348 358 19 28 3 359 28 47 34 16 8 11 38 69 97 102 86 78 49 29 40 51 83 120 136 121 83 77 89 94 79 58 24 17 20 29 45 215 221 195 188 211 223 198 182 183 185 191 188 181 194 227 240 241 246 259 267 258 222 210
263 276 286 295 298 299 297 291 282 273 267 261 269 280 245 191 194 175 72 132 148 159 164 146 69 8 357 359 9 40 57 335 316 33 44 27 14 12 18 31 50 66 70 72 73 53 36 40 53 78 113 147 138 90 81 94 101 87 53 4 48 72 68 88 116 177 247 215 213 231 230 206 188 211 231 227 221 227 236 238 237 239 250 263 266 250 227
270 283 295 303 303 299 294 288 275 264 257 248 250 257 232 204 210 217 172 161 145 155 161 134 90 37 338 356 10 34 55 33 9 13 17 8 5 25 40 36 43 57 54 51 57 53 48 51 47 41 66 146 154 102 79 80 86 66 2 324 322 246 219 158 142 136 143 164 161 170 210 213 207 219 233 239 240 242 247 251 251 251 258 263 258 248 245
277 292 301 303 299 292 287 284 271 260 251 233 229 228 220 219 220 202 191 172 127 150 186 163 124 133 302 348 9 31 42 38 30 4 354 355 360 44 60 32 8 34 38 35 47 58 55 54 50 32 30 57 128 117 87 53 21 17 3 343 330 322 314 209 180 180 181 176 171 177 202 215 212 219 234 251 263 264 268 272 266 257 259 265 240 221 236
284 297 300 289 275 268 272 272 276 283 251 224 215 196 188 203 206 173 168 161 124 121 127 114 103 104 352 323 345 11 15 20 16 350 349 356 7 50 62 36 14 19 17 19 42 56 45 45 58 55 31 25 42 95 97 58 27 44 24 354 338 332 341 343 230 201 206 211 203 202 218 234 236 238 247 259 269 275 281 283 266 235 222 234 239 233 239
287 288 278 261 246 241 235 233 345 54 107 176 197 178 157 160 176 162 145 138 128 117 108 95 76 49 346 280 283 339 345 352 0 356 359 9 8 16 45 55 35 7 0 20 49 54 356 15 44 43 32 28 37 77 119 95 49 139 108 354 342 340 350 0 356 223 222 239 244 242 245 244 235 240 267 275 281 289 292 291 280 260 239 235 238 243 250
273 264 249 234 229 220 190 170 132 103 101 128 156 148 125 125 139 141 139 140 136 125 112 99 75 40 15 355 349 349 355 14 24 15 6 10 9 16 58 78 35 4 14 43 64 54 307 314 339 345 35 64 43 34 225 242 256 251 236 240 271 293 303 304 288 272 265 268 271 272 274 261 217 197 223 247 261 269 268 271 279 282 276 260 241 235 246
249 243 231 221 211 191 172 165 137 108 84 78 120 115 99 110 119 115 129 146 148 140 130 115 96 89 86 335 343 355 11 30 23 356 348 1 10 25 53 40 8 13 38 48 41 278 315 333 343 5 67 68 313 290 278 270 266 267 268 262 258 263 266 265 269 273 275 277 276 274 278 274 244 219 229 243 252 260 266 273 279 286 293 286 251 231 237
230 223 214 215 216 195 178 164 127 97 80 78 102 110 113 121 119 111 119 131 135 144 153 144 104 124 183 220 270 308 313 305 291 317 338 356 357 9 36 18 0 15 53 24 312 287 309 339 2 37 73 219 257 270 282 282 277 277 281 279 270 260 256 260 265 267 269 272 272 274 276 259 229 225 238 242 246 257 268 275 279 284 293 296 276 252 250
226 220 208 198 195 188 179 155 110 95 105 112 117 124 122 115 104 100 118 124 118 128 168 190 229 211 221 253 307 310 311 313 284 319 333 335 322 355 52 36 1 3 28 10 347 351 8 11 8 10 357 237 248 261 270 274 279 286 293 293 285 266 253 255 260 259 258 259 262 270 275 260 245 250 256 253 249 249 255 265 274 280 287 290 286 279 279
234 234 218 188 160 142 138 123 106 113 137 130 124 125 120 113 104 99 117 123 118 122 228 246 288 275 274 312 335 313 313 322 260 280 309 313 306 319 24 17 348 358 28 8 350 3 38 35 354 341 310 260 266 277 279 277 279 285 294 301 298 278 255 255 262 263 261 261 263 266 268 267 267 269 270 269 264 255 253 262 272 278 282 285 286 288 292
233 238 220 180 149 126 115 108 103 125 138 122 117 119 116 115 120 120 113 121 147 250 291 303 143 316 331 12 266 291 304 299 266 257 258 297 303 308 328 344 345 13 38 355 343 2 21 4 355 4 297 271 293 301 297 291 292 296 299 299 294 278 253 242 251 263 267 265 262 259 258 265 275 278 278 283 291 286 273 269 270 271 276 285 293 296 298
199 195 176 154 137 122 119 114 106 106 107 103 108 117 115 114 121 122 111 151 180 203 285 270 196 268 302 254 268 295 308 298 276 262 201 317 325 338 358 303 335 12 331 309 328 7 27 3 335 303 277 287 302 306 301 300 303 306 305 300 290 279 261 238 238 256 265 258 246 245 251 263 277 286 291 299 307 309 304 288 272 266 266 274 286 293 296
174 164 156 149 136 120 118 117 107 99 97 97 100 104 105 111 119 111 47 195 190 199 235 31 224 303 313 290 292 313 324 314 297 80 43 328 340 3 13 343 357 357 334 336 353 359 343 323 304 289 289 294 295 293 298 308 312 310 306 302 293 283 271 251 241 245 249 240 233 240 252 263 274 285 298 308 310 313 319 320 307 283 264 265 279 293 297
175 163 150 142 132 118 111 109 103 98 99 99 94 87 89 108 121 125 136 160 184 222 255 248 218 286 304 299 301 317 333 337 10 48 343 307 317 3 2 357 358 329 330 350 357 329 317 315 289 279 296 306 303 300 306 318 325 321 310 307 308 304 296 283 265 253 248 246 249 255 261 266 271 278 289 298 304 313 321 322 317 307 290 284 289 293 289
172 161 144 131 124 118 113 111 107 99 90 83 75 71 108 150 161 182 192 184 211 286 266 249 248 256 273 292 303 306 318 342 359 354 320 315 351 51 325 300 290 294 314 329 321 319 332 330 283 269 279 287 292 297 306 318 328 334 327 317 317 319 320 319 314 301 284 273 269 269 268 264 263 268 274 280 288 300 307 307 307 307 304 300 291 262 268
183 176 159 136 121 115 116 113 105 91 78 73 74 90 143 172 200 220 206 184 291 289 262 262 273 266 251 274 301 297 296 328 340 312 302 320 354 333 292 281 277 291 317 320 317 335 343 328 315 305 288 277 279 288 300 311 320 326 324 316 315 316 318 320 321 315 305 296 291 289 285 276 269 265 264 266 273 281 286 290 296 297 295 294 285 250 262
199 192 172 143 122 114 112 110 105 97 96 151 168 169 175 198 241 250 213 189 210 246 258 267 271 234 209 228 244 254 297 316 311 276 282 307 311 297 301 313 326 317 307 314 325 319 293 286 292 292 277 271 276 285 295 304 313 318 316 311 309 312 317 319 316 311 308 305 302 300 299 295 288 281 276 275 277 277 275 279 289 291 288 286 276 250 257
200 190 170 147 126 109 93 92 105 127 184 195 192 205 218 232 261 274 248 215 224 244 255 263 270 140 166 231 225 208 255 295 298 278 278 287 284 288 302 314 318 313 298 292 298 299 290 284 281 273 266 270 278 286 294 303 309 312 310 303 298 301 309 312 308 306 307 305 302 301 302 301 297 292 290 291 289 281 270 274 287 292 287 282 273 260 263
200 190 173 152 131 113 94 101 151 183 213 213 211 245 256 241 250 269 268 257 268 275 262 249 270 155 176 227 240 218 235 268 277 268 265 267 276 301 307 300 306 323 318 290 282 286 287 285 284 282 279 280 284 291 299 305 306 306 305 301 298 304 311 310 304 300 297 295 294 295 296 296 293 289 287 290 292 286 276 277 286 292 288 283 276 267 264
203 193 181 165 146 137 156 186 179 199 233 233 221 238 250 232 238 258 272 280 290 301 313 305 287 246 214 242 260 245 236 244 247 252 266 271 263 273 284 284 287 295 292 286 286 288 282 278 283 290 293 292 290 292 296 299 299 301 303 300 296 299 306 307 305 302 296 290 287 286 287 289 290 287 279 276 279 283 280 279 281 285 289 288 283 272 266
201 189 184 181 169 161 171 184 182 194 229 229 202 193 212 235 246 251 257 267 279 290 298 283 274 267 264 268 261 242 239 248 242 238 252 265 262 263 273 276 275 274 277 283 292 294 287 283 288 297 301 300 297 297 299 301 303 306 308 304 298 294 296 298 299 300 296 289 284 281 281 282 284 283 280 278 279 278 277 277 279 281 284 286 285 280 274
200 187 183 187 182 173 182 201 200 195 199 225 215 204 214 237 250 250 252 264 273 271 258 254 259 262 263 261 250 241 252 268 263 249 251 257 262 267 268 265 266 271 276 279 283 285 286 290 296 301 303 303 303 304 306 307 309 310 310 307 305 308 309 304 298 295 293 287 283 281 281 281 280 281 282 282 277 265 260 265 274 283 288 286 284 284 280